Change the Weather History Date:

Sunday, February 3, 2013

  Actual Average Record
Temperature  
Mean Temperature 34 °F -  
Max Temperature 37 °F 41 °F 50 °F (2004)
Min Temperature 32 °F 33 °F 8 °F (2012)
Degree Days  
Heating Degree Days 30    
Moisture  
Dew Point 32 °F    
Average Humidity 92    
Maximum Humidity 100    
Minimum Humidity 63    
Precipitation  
Precipitation 0.04 in - - ()
Sea Level Pressure  
Sea Level Pressure 30.08 in    
Wind  
Wind Speed 11 mph ()    
Max Wind Speed 20 mph    
Max Gust Speed -    
Visibility 4.1 miles    
Events Rain , Snow    
Averages and records for this station are not official NWS values.
T = Trace of Precipitation, MM = Missing Value Source: Averaged Metar Reports

Daily Weather History Graph

Daily Weather History Graph

Search for Another Location

Airport or City:

Trip Planner

Search our weather history database for the weather conditions in past years. The results will help you decide how hot, cold, wet, or windy it might be!

Date:

Astronomy

Feb. 03, 2013 Rise Set
Actual Time 8:12 AM CET 5:38 PM CET
Civil Twilight 7:37 AM CET 6:13 PM CET
Nautical Twilight 6:58 AM CET 6:52 PM CET
Astronomical Twilight 6:21 AM CET 7:30 PM CET
Moon 1:22 AM CET (2/3) 11:02 AM CET (2/3)
Length of Visible Light 10h 35m
Length of Day
9h 26m
Waning Gibbous, 51% of the Moon is Illuminated
Feb 3
Waning Gibbous
Feb 3
Last Quarter
Feb 10
New
Feb 17
First Quarter
Feb 25
Full

Hourly Weather History & Observations

Time (CET) Temp. Windchill Dew Point Humidity Pressure Visibility Wind Dir Wind Speed Gust Speed Precip Events Conditions
12:25 AM 32.0 °F 23.6 °F 30.2 °F 93% 30.06 in 6.2 mi NW 10.4 mph - N/A   Mostly Cloudy
12:40 AM 32.0 °F 23.6 °F 32.0 °F 100% 30.06 in 3.7 mi NW 10.4 mph - N/A Snow Light Snow
12:52 AM 32.0 °F 24.2 °F 32.0 °F 100% 30.06 in 2.8 mi NW 9.2 mph - N/A Snow Light Snow
12:55 AM 32.0 °F 24.2 °F 32.0 °F 100% 30.06 in 3.7 mi NW 9.2 mph - N/A   Mostly Cloudy
1:00 AM 33 °F - 32 °F 92% 30.12 in 4 mi NW 8.9 mph - - Snow Light Snow
1:25 AM 33.8 °F 25.8 °F 32.0 °F 93% 30.06 in 4.3 mi NW 10.4 mph - N/A   Overcast
1:55 AM 32.0 °F 23.6 °F 32.0 °F 100% 30.06 in 4.3 mi NW 10.4 mph - N/A   Mostly Cloudy
2:25 AM 33.8 °F 26.4 °F 32.0 °F 93% 30.09 in - NW 9.2 mph - N/A   Mostly Cloudy
2:33 AM 33.8 °F 26.4 °F 32.0 °F 93% 30.09 in 3.1 mi NW 9.2 mph - N/A   Mostly Cloudy
2:55 AM 33.8 °F 26.4 °F 30.2 °F 87% 30.09 in 3.1 mi NW 9.2 mph - N/A   Mostly Cloudy
3:25 AM 33.8 °F 26.4 °F 33.8 °F 100% 30.09 in 2.2 mi WNW 9.2 mph - N/A   Mostly Cloudy
3:55 AM 33.8 °F 26.4 °F 33.8 °F 100% 30.12 in 3.1 mi WNW 9.2 mph - N/A   Mostly Cloudy
4:00 AM 34 °F - 33 °F 97% 30.17 in 1 mi WNW 8.9 mph - -   Mist
4:25 AM 33.8 °F 27.0 °F 33.8 °F 100% 30.12 in 2.5 mi WNW 8.1 mph - N/A   Mostly Cloudy
4:55 AM 33.8 °F 26.4 °F 33.8 °F 100% 30.12 in 3.1 mi NW 9.2 mph - N/A   Mostly Cloudy
5:25 AM 33.8 °F 26.4 °F 33.8 °F 100% 30.12 in 3.7 mi WNW 9.2 mph - N/A   Mostly Cloudy
5:55 AM 33.8 °F 26.4 °F 33.8 °F 100% 30.12 in 2.2 mi WNW 9.2 mph - N/A   Mostly Cloudy
6:02 AM 33.8 °F 27.0 °F 33.8 °F 100% 30.12 in 1.9 mi WNW 8.1 mph - N/A Snow Light Snow
6:25 AM 33.8 °F 27.0 °F 33.8 °F 100% 30.12 in 1.7 mi WNW 8.1 mph - N/A Snow Light Snow
6:55 AM 33.8 °F 27.7 °F 33.8 °F 100% 30.12 in 2.2 mi West 6.9 mph - N/A   Mostly Cloudy
7:00 AM 34 °F - 34 °F 100% 30.19 in 2 mi West 6.7 mph - - Snow Light Snow
7:15 AM 33.8 °F 26.4 °F 33.8 °F 100% 30.15 in 1.1 mi West 9.2 mph - N/A   Mostly Cloudy
7:25 AM 33.8 °F 27.0 °F 33.8 °F 100% 30.15 in 1.5 mi WNW 8.1 mph - N/A   Mostly Cloudy
7:55 AM 33.8 °F 27.0 °F 33.8 °F 100% 30.12 in 1.2 mi WNW 8.1 mph - N/A   Mostly Cloudy
8:08 AM 33.8 °F 26.4 °F 33.8 °F 100% 30.12 in - West 9.2 mph - N/A   Mostly Cloudy
8:25 AM 33.8 °F 26.4 °F 33.8 °F 100% 30.12 in - West 9.2 mph - N/A   Mostly Cloudy
8:53 AM 33.8 °F 26.4 °F 33.8 °F 100% 30.12 in 1.6 mi West 9.2 mph - N/A   Mostly Cloudy
9:18 AM 33.8 °F 25.8 °F 33.8 °F 100% 30.12 in 1.3 mi West 10.4 mph - N/A   Mostly Cloudy
9:55 AM 33.8 °F 25.8 °F 33.8 °F 100% 30.15 in 1.9 mi West 10.4 mph - N/A   Mostly Cloudy
10:00 AM 34 °F - 34 °F 100% 30.21 in 2 mi West 11.2 mph - -   Mist
10:08 AM 33.8 °F 25.3 °F 33.8 °F 100% 30.15 in 2.2 mi West 11.5 mph - N/A   Mostly Cloudy
10:23 AM 33.8 °F 25.3 °F 33.8 °F 100% 30.12 in 3.7 mi West 11.5 mph - N/A   Mostly Cloudy
10:25 AM 33.8 °F 25.3 °F 33.8 °F 100% 30.12 in 4.3 mi West 11.5 mph - N/A   Mostly Cloudy
10:55 AM 33.8 °F 24.3 °F 32.0 °F 93% 30.15 in 6.2 mi West 13.8 mph - N/A   Mostly Cloudy
11:08 AM 33.8 °F 23.5 °F 32.0 °F 93% 30.12 in 6.2 mi West 16.1 mph - N/A   Mostly Cloudy
11:25 AM 33.8 °F 24.3 °F 32.0 °F 93% 30.12 in 6.2 mi West 13.8 mph - N/A   Mostly Cloudy
11:38 AM 35.6 °F 26.2 °F 30.2 °F 81% 30.12 in 6.2 mi WSW 15.0 mph - N/A   Mostly Cloudy
11:43 AM 35.6 °F 26.2 °F 32.0 °F 87% 30.12 in 6.2 mi WSW 15.0 mph - N/A   Mostly Cloudy
11:55 AM 35.6 °F 25.9 °F 33.8 °F 93% 30.12 in 6.2 mi West 16.1 mph - N/A   Mostly Cloudy
12:25 PM 35.6 °F 25.2 °F 28.4 °F 75% 30.09 in 6.2 mi West 18.4 mph - N/A   Mostly Cloudy
1:00 PM 36 °F - 28 °F 63% 30.16 in 16 mi West 17.9 mph - -   Partly Cloudy
1:25 PM 35.6 °F 25.5 °F 28.4 °F 75% 30.09 in 6.2 mi West 17.3 mph - N/A   Mostly Cloudy
1:55 PM 35.6 °F 26.2 °F 28.4 °F 75% 30.09 in 6.2 mi WSW 15.0 mph - N/A   Mostly Cloudy
2:23 PM 37.4 °F 27.8 °F 28.4 °F 70% 30.06 in 6.2 mi WSW 17.3 mph - N/A   Mostly Cloudy
2:25 PM 37.4 °F 27.8 °F 28.4 °F 70% 30.06 in 6.2 mi WSW 17.3 mph - N/A   Mostly Cloudy
2:55 PM 37.4 °F 28.5 °F 28.4 °F 70% 30.04 in 6.2 mi WSW 15.0 mph - N/A   Mostly Cloudy
3:25 PM 37.4 °F 28.2 °F 30.2 °F 75% 30.04 in 6.2 mi SW 16.1 mph - N/A   Mostly Cloudy
3:55 PM 35.6 °F 25.5 °F 28.4 °F 75% 30.04 in 6.2 mi WSW 17.3 mph - N/A   Mostly Cloudy
4:00 PM 36 °F - 29 °F 67% 30.08 in 16 mi SW 17.9 mph - -   Overcast
4:25 PM 35.6 °F 25.9 °F 28.4 °F 75% 30.04 in 6.2 mi WSW 16.1 mph - N/A   Mostly Cloudy
4:55 PM 35.6 °F 25.5 °F 30.2 °F 81% 30.01 in 3.7 mi WSW 17.3 mph - N/A Rain Light Rain
5:12 PM 35.6 °F 26.2 °F 32.0 °F 87% 30.01 in - WSW 15.0 mph - N/A Rain Rain
5:25 PM 33.8 °F 22.8 °F 32.0 °F 93% 30.01 in 2.5 mi SW 18.4 mph - N/A Rain Rain
5:45 PM 33.8 °F 22.5 °F 32.0 °F 93% 30.01 in 3.1 mi SW 19.6 mph - N/A Rain Rain
5:55 PM 35.6 °F 25.5 °F 32.0 °F 87% 30.01 in 3.7 mi SW 17.3 mph - N/A Rain Rain
6:25 PM 33.8 °F 23.2 °F 33.8 °F 100% 30.01 in 3.7 mi WSW 17.3 mph - N/A Rain Rain
6:55 PM - - - N/A% 30.01 in - WSW 16.1 mph - N/A Rain Rain
7:00 PM 35 °F - 34 °F 93% 30.06 in 2 mi WSW 15.7 mph - - Snow Light Snow
7:25 PM 35.6 °F 26.2 °F 33.8 °F 93% 30.01 in 1.2 mi WSW 15.0 mph - N/A Rain Light Rain
8:43 PM 35.6 °F 26.6 °F 35.6 °F 100% 29.98 in 3.7 mi WSW 13.8 mph - N/A Rain Light Rain
9:23 PM 35.6 °F 28.0 °F 35.6 °F 100% 29.98 in 3.7 mi WSW 10.4 mph - N/A Rain Light Rain
10:00 PM 36 °F - 36 °F 98% 30.02 in 4 mi SW 11.2 mph - - Rain Light Rain
10:25 PM 35.6 °F 27.1 °F 35.6 °F 100% 29.98 in 3.7 mi SW 12.7 mph - N/A   Overcast
10:55 PM 35.6 °F 27.5 °F 35.6 °F 100% 29.98 in - WSW 11.5 mph - N/A   Mostly Cloudy
11:08 PM 37.4 °F 29.8 °F 35.6 °F 93% 29.98 in 1.7 mi SW 11.5 mph - N/A   Mostly Cloudy
11:25 PM 37.4 °F 29.8 °F 37.4 °F 100% 29.98 in 1.7 mi SW 11.5 mph - N/A   Mostly Cloudy